EN

Hourly Weather Lagutnik

Today, 24 July, Saturday

Time Temperature Precipitation Wind Pressure Humidity
00:00 +21°C° 0 mm 4 mps 757 mmHg 51%
01:00 +21°C° 0 mm 4 mps 757 mmHg 52%
02:00 +20°C° 0 mm 4 mps 758 mmHg 53%
03:00 +20°C° 0 mm 3 mps 758 mmHg 54%
04:00 +20°C° 0 mm 3 mps 758 mmHg 55%
05:00 +20°C° 0 mm 3 mps 758 mmHg 56%
06:00 +20°C° 0 mm 3 mps 758 mmHg 57%
07:00 +21°C° 0 mm 3 mps 758 mmHg 52%
08:00 +24°C° 0 mm 3 mps 758 mmHg 47%
09:00 +26°C° 0 mm 3 mps 759 mmHg 42%
10:00 +27°C° 0 mm 3 mps 759 mmHg 39%
11:00 +28°C° 0 mm 3 mps 759 mmHg 36%
12:00 +30°C° 0 mm 3 mps 759 mmHg 33%
13:00 +30°C° 0 mm 3 mps 758 mmHg 32%
14:00 +31°C° 0 mm 3 mps 758 mmHg 30%
15:00 +31°C° 0 mm 3 mps 758 mmHg 29%
16:00 +31°C° 0 mm 3 mps 758 mmHg 30%
17:00 +31°C° 0 mm 3 mps 759 mmHg 31%
18:00 +30°C° 0 mm 3 mps 759 mmHg 32%
19:00 +29°C° 0 mm 2 mps 759 mmHg 35%
20:00 +27°C° 0 mm 2 mps 759 mmHg 38%
21:00 +26°C° 0 mm 2 mps 760 mmHg 40%
22:00 +25°C° 0 mm 2 mps 760 mmHg 42%
23:00 +25°C° 0 mm 3 mps 760 mmHg 44%

Tomorrow, 25 July, Sunday

Time Temperature Precipitation Wind Pressure Humidity
00:00 +23°C° 0 mm 4 mps 760 mmHg 46%
01:00 +23°C° 0 mm 4 mps 760 mmHg 49%
02:00 +22°C° 0 mm 4 mps 761 mmHg 51%
03:00 +21°C° 0 mm 4 mps 761 mmHg 53%
04:00 +21°C° 0 mm 4 mps 761 mmHg 55%
05:00 +21°C° 0 mm 4 mps 761 mmHg 57%
06:00 +21°C° 0 mm 4 mps 762 mmHg 59%
07:00 +23°C° 0 mm 5 mps 762 mmHg 53%
08:00 +26°C° 0 mm 5 mps 762 mmHg 46%
09:00 +29°C° 0 mm 5 mps 762 mmHg 40%
10:00 +30°C° 0 mm 5 mps 762 mmHg 37%
11:00 +32°C° 0 mm 5 mps 762 mmHg 33%
12:00 +33°C° 0 mm 5 mps 762 mmHg 30%
13:00 +34°C° 0 mm 5 mps 762 mmHg 29%
14:00 +34°C° 0 mm 4 mps 762 mmHg 28%
15:00 +35°C° 0 mm 4 mps 762 mmHg 27%
16:00 +34°C° 0 mm 4 mps 762 mmHg 28%
17:00 +34°C° 0 mm 4 mps 762 mmHg 29%
18:00 +34°C° 0 mm 4 mps 762 mmHg 30%
19:00 +32°C° 0 mm 4 mps 762 mmHg 33%
20:00 +29°C° 0 mm 4 mps 762 mmHg 37%
21:00 +28°C° 0 mm 3 mps 762 mmHg 41%
22:00 +27°C° 0 mm 4 mps 763 mmHg 42%
23:00 +26°C° 0 mm 4 mps 763 mmHg 43%

Day after tomorrow, 26 July, Monday

Time Temperature Precipitation Wind Pressure Humidity
00:00 +26°C° 0 mm 4 mps 763 mmHg 45%
01:00 +26°C° 0 mm 4 mps 763 mmHg 44%
02:00 +25°C° 0 mm 5 mps 763 mmHg 44%
03:00 +25°C° 0 mm 5 mps 763 mmHg 43%
04:00 +25°C° 0 mm 5 mps 763 mmHg 46%
05:00 +25°C° 0 mm 4 mps 763 mmHg 48%
06:00 +25°C° 0 mm 4 mps 763 mmHg 50%
07:00 +26°C° 0 mm 5 mps 763 mmHg 47%
08:00 +27°C° 0 mm 5 mps 763 mmHg 44%
09:00 +28°C° 0 mm 5 mps 763 mmHg 41%
10:00 +28°C° 0 mm 6 mps 763 mmHg 39%
11:00 +29°C° 0 mm 6 mps 764 mmHg 37%
12:00 +30°C° 0 mm 6 mps 764 mmHg 35%
13:00 +32°C° 0 mm 6 mps 763 mmHg 33%
14:00 +33°C° 0 mm 6 mps 763 mmHg 31%
15:00 +34°C° 0 mm 7 mps 763 mmHg 29%
16:00 +34°C° 0 mm 6 mps 763 mmHg 30%
17:00 +33°C° 0 mm 6 mps 763 mmHg 31%
18:00 +33°C° 0 mm 6 mps 763 mmHg 32%
19:00 +30°C° 0 mm 5 mps 763 mmHg 35%
20:00 +29°C° 0 mm 5 mps 763 mmHg 38%
21:00 +27°C° 0 mm 5 mps 763 mmHg 41%
22:00 +27°C° 0 mm 4 mps 763 mmHg 40%
23:00 +27°C° 0 mm 4 mps 763 mmHg 40%

27 July, Tuesday

Time Temperature Precipitation Wind Pressure Humidity
00:00 +27°C° 0 mm 4 mps 763 mmHg 40%
01:00 +27°C° 0 mm 4 mps 763 mmHg 40%
02:00 +26°C° 0 mm 4 mps 763 mmHg 40%
03:00 +26°C° 0 mm 4 mps 763 mmHg 40%
04:00 +25°C° 0 mm 4 mps 763 mmHg 42%
05:00 +25°C° 0 mm 4 mps 764 mmHg 43%
06:00 +23°C° 0 mm 4 mps 764 mmHg 45%
07:00 +26°C° 0 mm 4 mps 764 mmHg 40%
08:00 +28°C° 0 mm 5 mps 764 mmHg 36%
09:00 +30°C° 0 mm 5 mps 764 mmHg 32%
10:00 +32°C° 0 mm 5 mps 764 mmHg 30%
11:00 +32°C° 0 mm 5 mps 764 mmHg 29%
12:00 +33°C° 0 mm 5 mps 764 mmHg 28%
13:00 +34°C° 0 mm 5 mps 764 mmHg 27%
14:00 +34°C° 0 mm 4 mps 763 mmHg 26%
15:00 +35°C° 0 mm 4 mps 763 mmHg 25%
16:00 +34°C° 0 mm 4 mps 763 mmHg 27%
17:00 +33°C° 0 mm 4 mps 763 mmHg 29%
18:00 +33°C° 0 mm 4 mps 763 mmHg 31%
19:00 +31°C° 0 mm 3 mps 763 mmHg 33%
20:00 +29°C° 0 mm 3 mps 763 mmHg 35%
21:00 +28°C° 0 mm 3 mps 763 mmHg 37%
22:00 +28°C° 0 mm 3 mps 764 mmHg 39%
23:00 +27°C° 0 mm 2 mps 764 mmHg 40%

28 July, Wednesday

Time Temperature Precipitation Wind Pressure Humidity
00:00 +26°C° 0 mm 2 mps 764 mmHg 42%
01:00 +25°C° 0 mm 2 mps 764 mmHg 42%
02:00 +25°C° 0 mm 2 mps 764 mmHg 43%
03:00 +24°C° 0 mm 2 mps 764 mmHg 44%
04:00 +24°C° 0 mm 2 mps 764 mmHg 45%
05:00 +24°C° 0 mm 2 mps 764 mmHg 46%
06:00 +24°C° 0 mm 1 mps 764 mmHg 47%
07:00 +26°C° 0 mm 2 mps 764 mmHg 42%
08:00 +28°C° 0 mm 2 mps 764 mmHg 38%
09:00 +29°C° 0 mm 2 mps 764 mmHg 33%
10:00 +30°C° 0 mm 2 mps 764 mmHg 31%
11:00 +31°C° 0 mm 2 mps 764 mmHg 29%
12:00 +34°C° 0 mm 2 mps 763 mmHg 27%
13:00 +34°C° 0 mm 2 mps 763 mmHg 26%
14:00 +34°C° 0 mm 2 mps 763 mmHg 26%
15:00 +34°C° 0 mm 2 mps 763 mmHg 25%
16:00 +34°C° 0 mm 2 mps 762 mmHg 26%
17:00 +34°C° 0 mm 2 mps 762 mmHg 26%
18:00 +34°C° 0 mm 2 mps 762 mmHg 26%
19:00 +31°C° 0 mm 2 mps 762 mmHg 29%
20:00 +30°C° 0 mm 2 mps 762 mmHg 31%
21:00 +28°C° 0 mm 2 mps 762 mmHg 33%
22:00 +27°C° 0 mm 2 mps 762 mmHg 35%
23:00 +26°C° 0 mm 2 mps 762 mmHg 36%

29 July, Thursday

Time Temperature Precipitation Wind Pressure Humidity
00:00 +25°C° 0 mm 2 mps 762 mmHg 37%
01:00 +25°C° 0 mm 1 mps 762 mmHg 38%
02:00 +25°C° 0 mm 1 mps 762 mmHg 38%
03:00 +23°C° 0 mm 0 mps 762 mmHg 39%
04:00 +25°C° 0 mm 1 mps 762 mmHg 39%
05:00 +24°C° 0 mm 1 mps 762 mmHg 40%
06:00 +24°C° 0 mm 2 mps 761 mmHg 41%
07:00 +26°C° 0 mm 2 mps 761 mmHg 36%
08:00 +28°C° 0 mm 2 mps 761 mmHg 32%
09:00 +30°C° 0 mm 2 mps 761 mmHg 28%
10:00 +31°C° 0 mm 2 mps 761 mmHg 26%
11:00 +34°C° 0 mm 2 mps 761 mmHg 23%
12:00 +35°C° 0 mm 2 mps 761 mmHg 21%
13:00 +35°C° 0 mm 2 mps 760 mmHg 21%
14:00 +36°C° 0 mm 2 mps 760 mmHg 20%
15:00 +36°C° 0 mm 2 mps 760 mmHg 20%
16:00 +36°C° 0 mm 2 mps 759 mmHg 21%
17:00 +35°C° 0 mm 2 mps 759 mmHg 21%
18:00 +35°C° 0 mm 2 mps 759 mmHg 22%
19:00 +32°C° 0 mm 2 mps 759 mmHg 26%
20:00 +30°C° 0 mm 2 mps 759 mmHg 31%
21:00 +28°C° 0 mm 2 mps 759 mmHg 35%
22:00 +27°C° 0 mm 2 mps 759 mmHg 37%
23:00 +27°C° 0 mm 1 mps 759 mmHg 39%
Show more